Terminal Aerodrome Forecast
Issued by NWS

Home | Current Version | Previous Version | Text Only | Print | Product List | Glossary On
Versions: 1 2 3 4 5 6 7 8 9 10 11 12 13
000
FTUS43 KTOP 062320
TAFFOE
TAF
KFOE 062320Z 0700/0724 20011KT P6SM SKC
     FM070700 18009KT P6SM SCT200 WS015/23045KT
     FM071300 22013KT P6SM SCT200=

USA.gov is the U.S. government's official web portal to all federal, state and local government web resources and services.